This is the latest recevied weather packets stored in our database for station/object NK7I. If no packets are shown the sender has not sent any weather packets the latest 10 day(s).
| Time | Temp. | Humidity | Pressure | Rain* | Wind** | Luminosity | Snow |
|---|---|---|---|---|---|---|---|
| 1777590682 | 23.33° C | 29% | 1018 hPa | 0 mm | - | 814 W/m² | - |
| 1777590383 | 23.33° C | 30% | 1018.1 hPa | 0 mm | - | 833 W/m² | - |
| 1777590083 | 23.33° C | 31% | 1018.2 hPa | 0 mm | - | 851 W/m² | - |
| 1777589782 | 23.33° C | 28% | 1018.3 hPa | 0 mm | - | 874 W/m² | - |
| 1777589482 | 23.33° C | 28% | 1018.3 hPa | 0 mm | - | 889 W/m² | - |
| 1777589182 | 23.33° C | 30% | 1018.4 hPa | 0 mm | - | 905 W/m² | - |
| 1777588882 | 23.33° C | 29% | 1018.4 hPa | 0 mm | - | 926 W/m² | - |
| 1777588582 | 23.33° C | 29% | 1018.4 hPa | 0 mm | - | 942 W/m² | - |
| 1777588282 | 23.33° C | 26% | 1018.5 hPa | 0 mm | - | 960 W/m² | - |
| 1777587982 | 23.33° C | 29% | 1018.6 hPa | 0 mm | - | 977 W/m² | - |
| 1777587682 | 23.33° C | 30% | 1018.7 hPa | 0 mm | - | 1002 W/m² | - |
| 1777587382 | 23.33° C | 28% | 1018.7 hPa | 0 mm | - | 1014 W/m² | - |
| 1777587083 | 23.33° C | 29% | 1018.8 hPa | 0 mm | - | 1028 W/m² | - |
| 1777586782 | 22.78° C | 29% | 1018.8 hPa | 0 mm | - | 1042 W/m² | - |
| 1777586484 | 22.78° C | 28% | 1018.9 hPa | 0 mm | - | 1056 W/m² | - |
| 1777586182 | 22.78° C | 29% | 1019 hPa | 0 mm | - | 1074 W/m² | - |
| 1777585883 | 22.78° C | 30% | 1019.1 hPa | 0 mm | - | 1086 W/m² | - |
| 1777585583 | 22.78° C | 29% | 1019.1 hPa | 0 mm | - | 1100 W/m² | - |
| 1777585282 | 22.22° C | 29% | 1019.2 hPa | 0 mm | - | 1120 W/m² | - |
| 1777584982 | 22.22° C | 32% | 1019.2 hPa | 0 mm | - | 1132 W/m² | - |
| 1777584683 | 21.67° C | 29% | 1019.3 hPa | 0 mm | - | 1141 W/m² | - |
| 1777584383 | 22.22° C | 26% | 1019.4 hPa | 0 mm | - | 1158 W/m² | - |
| 1777584083 | 22.22° C | 29% | 1019.5 hPa | 0 mm | - | 1167 W/m² | - |
| 1777583782 | 22.22° C | 28% | 1019.5 hPa | 0 mm | - | 1176 W/m² | - |
| 1777583482 | 22.22° C | 31% | 1019.5 hPa | 0 mm | - | 1187 W/m² | - |
* Rain latest hour (hover to see other rain measurements)
** Current wind speed in m/s (hover to see current wind gust speed)